DELTA 1 DEB, 21514

Orbit data source: Space-Track

DELTA 1 DEB, 21514 is space debris in SSO originally from a launch on Thu, 12 Jun 1975 UTC launched from the Air Force Western Test Range (AFWTR). Debris objects in space refer to the collection of defunct objects orbiting the Earth. Examples of debris include non-operational satellites, rocket bodies, and fragments generated from explosions, collisions, or faulty payload assembly.

Loading next visibility...
Identifier
21514, 1975-052GK
Orbit
SSO
Country
Flag of USUS
Related business
Manufacturer
Unknown
Mission
Spacecraft
Bus & Motor
Unknown
Mass
Unknown
Launch date (UTC)
1975-06-12 (51 years ago)
Launch vehicle
Unknown
Launch site
Air Force Western Test Range (AFWTR)
Object type
Payload
Rocket body
Debris
Shape & HBR
Unknown shape, 0.1 m
Radar Cross Section
Small (<0.1 m²)

Expand to show TLE details & history
Last TLE update: 1 day ago

TLE from 1 day ago
0 DELTA 1 DEB
1 21514U 75052GK  25349.09089034  .00001420  00000-0  30731-2 0  9991
2 21514  99.8659  30.1092 0307938 297.9817 128.0277 13.15102652638133
Epoch: 2025-12-15T02:10Z
TLE epoch observation values (Epoch: 2025-12-15T02:10:52.925Z)
Latitude
66.72403°
Longitude
-110.32734°
Altitude
1,363.115 km
Speed
7.112 km/s
True Right ascension
00h 25m 33s
True Declination
66° 36' 31"
Sunlit
Object was in daylight at epoch
Visualization orbit readout
Latitude
Unknown
Longitude
Unknown
Altitude
Unknown
Speed
Unknown
Apparent Right ascension
Unknown
Apparent Declination
Unknown
Sunlit
N/A
Visualization observer readout
Local Sidereal Time
03:57:24
Azimuth
Unknown
Elevation
Unknown
Doppler factor
Unknown
Orbital elements
Apogee altitude
1,434.222 km
Perigee altitude
967.452 km
Semi-major axis
7,578.974 km
Eccentricity
0.03079
Inclination
99.8659°
RAAN
30.1092°
Arg. of periapsis
297.9817°
True anomaly
130.74185°
Mean anomaly
128.0277°
Eccentric anomaly
129.39125°
Mean motion
3.28948 °/min
Orbital period
109.44 mins
BSTAR
0.0030731
Loading maneuver chart data...
Computing Atmospheric mass density...
Loading historical data...
Loading historical data...
Loading historical data...
Loading historical data...
Loading historical data...
Loading historical data...
Loading historical data...

Documentation

Showing up to 5 results
|